Wind_Speed
13 14 13 13 13 13 13 12 13 13 13 13 13 13 13 12 12 12 11 11 10 10 10 10 9 9 9 8 8 8 7 7 7 7 6 6 6 6 6 5 5 5 5
15 15 14 15 14 14 14 14 14 14 14 14 14 14 14 14 14 13 13 13 12 12 12 11 11 10 10 10 9 9 9 9 8 8 8 8 7 7 7 6 6 6 6
16 16 15 15 15 15 15 15 15 15 15 15 15 15 15 15 14 14 14 14 13 13 13 13 12 12 11 11 11 11 11 10 10 9 9 9 9 8 8 8 8 7 7
17 17 16 16 16 16 16 16 16 16 16 16 16 16 16 15 15 15 15 15 14 14 14 14 14 13 13 12 12 12 12 12 12 11 11 10 10 10 9 9 9 8 8
17 18 18 18 18 18 18 18 17 18 18 17 17 17 17 17 16 16 17 16 16 16 15 15 15 15 15 14 14 13 13 13 13 12 12 12 11 11 11 10 10 10 9
19 19 19 19 19 19 19 19 19 19 19 19 18 18 18 18 18 18 17 17 17 17 17 17 16 16 16 16 15 15 14 14 13 13 13 13 13 12 12 12 11 11 11
20 20 21 21 21 21 21 21 21 21 21 20 20 20 19 19 19 19 19 19 18 18 18 18 18 17 17 17 17 16 15 15 14 14 14 14 14 14 13 13 13 13 12
21 21 22 22 23 23 23 23 23 23 23 23 22 22 21 20 20 20 20 20 19 19 18 18 18 19 18 18 17 17 16 16 16 15 15 15 15 15 14 14 14 14 14
22 23 23 23 24 24 25 25 25 25 25 25 25 24 23 22 21 21 21 20 20 20 19 19 19 19 19 19 18 18 18 18 17 17 17 16 16 16 16 15 15 15 15
23 24 24 25 25 26 26 26 27 26 26 26 26 26 26 25 24 23 22 22 22 21 21 20 20 20 20 20 20 19 19 19 19 18 18 18 18 18 18 17 16 16 16
25 26 26 26 26 27 27 28 28 28 28 28 28 28 28 27 27 25 24 23 23 23 23 22 21 21 21 21 21 21 20 20 20 20 20 19 19 19 19 18 18 17 17
27 27 27 28 28 28 28 29 29 30 30 29 29 29 30 29 28 28 26 26 25 24 24 24 23 23 23 22 22 22 22 22 22 21 21 21 20 20 20 20 19 19 19
28 28 28 28 28 29 29 30 30 30 30 31 30 30 31 31 30 29 29 28 27 26 26 25 25 25 24 24 24 24 23 23 23 23 23 23 22 21 21 21 21 21 20
30 30 30 31 30 30 30 31 31 31 32 32 32 32 32 33 32 31 30 29 29 29 28 27 27 27 26 26 25 25 25 25 25 24 24 24 23 23 22 22 22 22 21
32 32 32 33 33 33 32 32 33 32 33 34 33 33 33 33 34 33 32 31 31 30 30 29 28 28 28 28 27 27 26 26 26 26 25 25 25 25 24 24 24 24 23
34 34 35 35 35 34 34 34 34 34 35 36 36 35 35 35 35 35 34 33 33 32 31 31 31 31 30 30 29 29 28 28 27 27 27 26 26 26 26 26 25 25 25
36 36 37 37 37 36 37 36 35 35 35 35 36 37 37 36 36 36 36 35 34 34 34 34 33 33 32 31 31 30 30 29 29 28 28 28 27 28 28 27 27 27 27
39 39 38 39 39 39 39 38 37 37 37 37 37 38 38 38 38 38 38 38 38 37 36 35 36 35 34 33 33 32 32 31 31 30 30 30 29 29 29 29 28 27 27
40 40 40 40 41 41 41 40 40 39 39 39 39 40 40 41 41 41 40 40 40 40 39 38 37 36 36 36 35 34 34 33 33 32 32 32 31 30 30 30 30 29 28
42 42 42 43 43 43 42 42 41 41 40 40 41 42 42 42 43 42 42 43 42 42 41 40 39 39 38 37 37 36 36 36 35 34 34 33 33 33 32 32 32 31 30
43 43 43 44 44 44 43 43 43 42 42 42 42 42 43 43 43 44 44 45 44 44 43 42 41 41 40 40 39 38 38 37 36 36 35 35 34 34 34 33 33 33 33
42 43 43 44 45 45 44 44 44 44 43 43 44 44 44 44 44 45 46 46 46 45 44 43 43 42 41 41 41 40 39 39 38 38 37 37 36 36 35 34 34 34 34
42 42 43 43 44 45 45 45 46 46 46 45 45 45 45 45 45 46 46 46 47 46 46 45 44 44 43 42 42 42 41 41 40 39 39 38 38 37 36 36 35 35 35
42 42 43 43 44 45 45 46 47 47 47 47 47 46 46 47 47 47 47 48 48 48 47 47 46 45 45 45 44 44 44 43 42 41 40 40 40 39 38 37 37 36 36
43 43 43 44 44 45 45 47 48 48 48 49 48 48 48 48 48 48 48 49 49 49 48 48 48 47 47 46 46 45 45 44 44 43 42 42 41 41 39 38 38 37 37
42 43 44 45 45 45 45 47 48 49 49 50 50 50 49 49 49 49 49 50 50 50 50 49 49 49 49 48 48 47 46 45 45 44 44 43 43 42 41 40 39 39 38
Wind_Direction
263 262 262 261 259 257 255 254 251 251 250 247 244 241 239 237 235 235 235 234 234 235 235 234 232 229 228 227 226 226 228 226 224 224 223 220 220 218 218 222 223 222 222
264 262 262 260 258 257 255 254 254 253 252 249 245 243 241 240 238 235 236 236 236 236 236 235 233 231 231 232 232 232 233 231 229 227 225 225 226 224 222 226 229 228 228
265 263 262 260 259 258 256 254 254 253 252 250 247 244 242 240 237 235 235 236 237 238 237 235 234 235 234 234 235 236 235 235 235 231 229 230 231 230 227 228 229 230 232
266 265 263 261 260 260 258 256 254 253 251 250 248 246 244 241 238 236 236 238 239 239 238 237 235 236 235 236 238 238 237 237 236 235 232 232 233 234 233 232 231 233 235
266 266 265 263 261 260 258 257 256 254 252 250 248 247 244 242 240 238 237 238 240 241 239 239 238 237 237 237 239 239 238 237 236 237 236 235 236 236 236 237 236 237 238
267 267 265 263 261 259 258 257 255 254 253 252 250 248 246 245 243 240 238 239 241 242 241 241 241 238 238 238 239 239 239 238 237 237 237 237 236 236 237 239 239 239 240
267 267 266 264 261 259 258 257 255 254 253 252 250 248 248 247 246 244 241 240 241 242 242 242 242 241 240 239 238 238 238 239 238 238 238 238 238 239 240 241 241 240 241
267 267 266 266 263 260 258 257 255 254 252 251 250 248 248 248 247 246 244 241 241 243 243 243 242 241 241 239 238 237 238 239 239 239 239 238 239 240 241 241 240 240 242
267 268 268 267 265 262 260 258 256 255 253 252 250 248 247 247 246 246 245 243 242 242 243 243 243 243 242 241 240 239 238 239 241 241 241 240 240 241 242 243 243 242 242
268 268 267 267 266 263 260 258 257 256 254 252 250 248 247 247 247 245 246 245 244 243 244 244 243 243 244 243 242 241 240 241 242 242 243 243 242 242 243 243 244 244 243
270 269 268 268 267 264 260 258 257 256 255 253 251 249 247 247 246 246 246 246 246 245 245 244 244 244 244 243 243 243 242 242 242 242 244 244 243 243 244 244 245 245 245
271 269 268 268 267 264 261 259 258 256 254 253 252 250 249 248 247 246 246 246 246 246 246 245 245 245 246 244 244 244 244 243 243 243 244 244 244 244 245 245 246 247 247
271 269 267 266 265 264 262 259 257 256 254 252 251 250 249 248 247 247 247 246 246 246 246 246 246 245 246 246 245 245 244 244 244 244 245 245 246 245 245 246 247 248 250
272 269 267 266 265 264 262 260 258 256 254 252 251 251 249 248 247 247 246 246 245 246 246 246 246 244 245 246 246 246 245 245 246 246 246 245 245 245 246 246 248 250 252
271 268 267 266 265 264 262 260 258 256 254 252 251 250 249 249 248 247 246 246 245 246 246 246 246 246 246 246 246 246 246 246 245 245 246 245 245 245 247 248 249 251 254
272 270 267 266 264 262 262 259 257 256 256 254 251 250 249 248 247 246 246 246 245 245 245 245 245 246 246 246 246 246 247 246 246 245 245 245 246 246 248 249 250 251 253
273 271 268 264 262 261 260 260 257 256 255 254 253 250 249 248 248 247 246 246 246 245 245 245 245 246 247 248 246 247 248 247 246 246 246 246 246 247 249 251 252 252 254
272 270 268 265 262 261 260 259 259 257 256 255 253 251 250 249 248 247 247 247 246 246 246 246 246 247 248 248 247 247 247 247 246 246 247 247 247 248 249 251 253 254 254
271 269 268 266 264 262 261 260 259 258 257 255 254 252 250 248 247 247 247 248 248 247 248 248 247 247 248 248 248 248 247 246 246 247 247 248 249 249 250 251 253 254 255
270 268 267 266 265 263 262 260 259 258 258 257 255 253 251 250 248 247 247 248 249 250 249 249 249 248 248 247 247 247 247 246 246 247 247 249 250 250 251 251 253 255 256
269 267 266 265 264 263 261 260 259 258 258 257 256 253 251 250 249 248 247 248 249 249 249 249 249 248 248 247 247 247 246 245 246 247 248 250 251 252 252 252 253 254 256
269 267 265 264 263 262 260 260 258 257 257 256 255 254 252 251 250 249 248 248 248 248 248 248 248 248 247 246 246 247 247 247 247 249 249 251 252 253 253 253 255 255 256
269 267 266 264 263 262 261 260 258 257 257 255 255 256 255 253 252 250 249 248 248 248 247 247 247 246 246 246 246 247 246 246 248 249 249 250 252 253 254 255 257 257 258
269 267 266 265 264 263 263 262 259 258 257 257 256 255 254 254 252 251 250 249 249 247 247 247 246 246 246 246 246 246 246 247 248 249 249 250 251 253 254 255 256 258 259
270 268 266 266 265 264 263 262 260 259 257 256 256 255 254 254 253 252 251 250 250 248 247 247 247 247 246 247 246 246 246 248 248 249 249 250 251 253 254 255 256 258 259
272 270 268 266 265 264 264 263 261 259 258 257 256 256 255 254 253 252 251 250 250 249 248 247 247 247 247 247 247 247 247 248 248 249 249 250 251 253 253 254 256 256 257
Height
5845 5845 5845 5845 5844 5844 5844 5844 5844 5845 5845 5845 5845 5846 5846 5847 5847 5847 5847 5848 5848 5848 5849 5849 5850 5850 5851 5851 5851 5852 5852 5852 5853 5853 5854 5854 5854 5855 5855 5855 5856 5856 5856
5843 5842 5842 5842 5842 5842 5842 5842 5842 5842 5842 5843 5843 5843 5844 5844 5845 5845 5845 5846 5846 5847 5847 5847 5848 5848 5849 5849 5850 5850 5851 5851 5852 5852 5853 5853 5853 5854 5854 5855 5855 5855 5855
5840 5839 5839 5839 5839 5839 5839 5839 5839 5840 5840 5840 5840 5841 5841 5841 5842 5842 5843 5843 5844 5844 5845 5845 5846 5846 5847 5848 5848 5849 5849 5850 5850 5851 5851 5852 5852 5853 5853 5853 5854 5854 5854
5837 5836 5836 5836 5836 5836 5836 5836 5836 5837 5837 5837 5837 5838 5838 5839 5839 5840 5840 5841 5841 5842 5842 5843 5844 5844 5845 5846 5846 5847 5847 5848 5848 5849 5849 5850 5851 5851 5852 5852 5853 5853 5853
5833 5833 5833 5833 5833 5833 5833 5833 5833 5833 5834 5834 5834 5835 5835 5836 5836 5837 5837 5838 5839 5839 5840 5840 5841 5842 5842 5843 5844 5844 5845 5846 5846 5847 5847 5848 5849 5849 5850 5851 5851 5852 5852
5830 5830 5829 5829 5829 5829 5829 5829 5829 5830 5830 5831 5831 5831 5832 5832 5833 5834 5834 5835 5835 5836 5837 5837 5838 5839 5840 5840 5841 5842 5843 5843 5844 5845 5845 5846 5847 5847 5848 5849 5849 5850 5850
5826 5826 5825 5825 5825 5825 5825 5825 5825 5826 5826 5827 5827 5828 5828 5829 5829 5830 5831 5831 5832 5833 5833 5834 5835 5836 5836 5837 5838 5839 5840 5841 5841 5842 5843 5844 5844 5845 5846 5846 5847 5848 5848
5822 5822 5821 5821 5821 5820 5820 5820 5820 5821 5822 5822 5823 5824 5824 5825 5826 5826 5827 5828 5828 5829 5830 5831 5831 5832 5833 5834 5835 5836 5837 5838 5839 5839 5840 5841 5842 5842 5843 5844 5844 5845 5846
5817 5817 5816 5816 5816 5815 5815 5815 5815 5816 5817 5817 5818 5819 5820 5821 5821 5822 5823 5824 5824 5825 5826 5827 5828 5829 5830 5831 5832 5833 5834 5834 5835 5836 5837 5838 5839 5840 5840 5841 5842 5842 5843
5812 5812 5811 5811 5810 5810 5810 5810 5810 5811 5811 5812 5813 5814 5815 5816 5817 5818 5819 5819 5820 5821 5822 5823 5824 5825 5826 5827 5828 5829 5830 5831 5832 5833 5834 5835 5836 5836 5837 5838 5839 5839 5840
5807 5806 5806 5805 5804 5804 5804 5804 5804 5805 5805 5806 5807 5808 5809 5810 5812 5813 5814 5815 5816 5816 5817 5818 5820 5821 5822 5823 5824 5825 5826 5827 5828 5829 5830 5831 5832 5833 5834 5835 5835 5836 5837
5801 5800 5800 5799 5798 5798 5798 5798 5798 5798 5799 5800 5800 5802 5803 5804 5806 5807 5808 5810 5811 5812 5813 5814 5815 5816 5817 5818 5819 5820 5822 5823 5824 5825 5826 5827 5828 5829 5830 5831 5832 5833 5833
5795 5794 5793 5793 5792 5791 5791 5791 5791 5791 5792 5793 5794 5795 5796 5798 5800 5801 5803 5804 5805 5806 5807 5809 5810 5811 5812 5813 5815 5816 5817 5818 5819 5821 5822 5823 5824 5825 5826 5827 5828 5829 5829
5788 5787 5786 5785 5785 5784 5784 5784 5784 5784 5785 5785 5787 5788 5789 5791 5793 5794 5796 5798 5799 5800 5802 5803 5804 5806 5807 5808 5809 5811 5812 5813 5815 5816 5817 5818 5819 5821 5821 5822 5823 5824 5825
5780 5779 5778 5777 5777 5777 5776 5776 5776 5776 5777 5778 5779 5780 5782 5783 5785 5787 5789 5791 5792 5794 5796 5797 5798 5800 5801 5802 5804 5805 5807 5808 5809 5811 5812 5813 5815 5816 5817 5818 5819 5820 5821
5772 5771 5770 5769 5768 5768 5768 5768 5768 5768 5769 5770 5771 5772 5774 5775 5777 5780 5782 5783 5785 5787 5789 5790 5792 5793 5795 5796 5798 5799 5801 5802 5803 5805 5806 5808 5809 5810 5811 5813 5814 5814 5815
5763 5761 5760 5760 5759 5759 5759 5759 5759 5760 5760 5761 5762 5763 5765 5767 5769 5771 5774 5776 5777 5779 5781 5783 5785 5786 5788 5790 5791 5793 5794 5796 5797 5799 5800 5802 5803 5805 5806 5807 5808 5809 5810
5753 5752 5751 5750 5750 5749 5749 5750 5750 5751 5751 5752 5753 5755 5757 5759 5761 5763 5765 5767 5769 5771 5773 5775 5777 5779 5781 5782 5784 5786 5787 5789 5791 5792 5794 5795 5797 5798 5800 5801 5802 5803 5804
5742 5741 5740 5740 5739 5739 5739 5740 5741 5741 5742 5742 5744 5745 5747 5749 5751 5754 5756 5758 5760 5762 5764 5766 5768 5770 5772 5774 5776 5778 5780 5782 5784 5785 5787 5789 5790 5792 5793 5794 5796 5797 5798
5730 5730 5729 5729 5729 5728 5729 5729 5730 5731 5732 5733 5734 5735 5737 5739 5741 5743 5746 5748 5751 5753 5755 5757 5759 5761 5763 5766 5768 5770 5772 5774 5776 5778 5779 5781 5783 5784 5786 5787 5789 5790 5791
5719 5718 5717 5717 5717 5717 5717 5718 5719 5720 5721 5722 5723 5724 5726 5728 5730 5733 5735 5738 5740 5743 5745 5747 5749 5752 5754 5756 5759 5761 5763 5765 5768 5770 5771 5773 5775 5777 5778 5780 5781 5782 5784
5706 5706 5705 5705 5705 5705 5705 5706 5707 5708 5709 5710 5711 5713 5715 5716 5718 5721 5724 5726 5729 5732 5734 5737 5739 5741 5744 5746 5749 5751 5754 5757 5759 5761 5763 5765 5767 5769 5771 5772 5773 5775 5776
5694 5693 5693 5693 5693 5693 5693 5694 5695 5696 5697 5698 5700 5701 5703 5705 5707 5709 5712 5714 5717 5720 5723 5726 5728 5731 5734 5736 5739 5742 5745 5747 5750 5752 5754 5756 5758 5760 5762 5764 5765 5767 5768
5682 5681 5681 5680 5680 5680 5681 5681 5682 5683 5684 5685 5687 5689 5690 5692 5694 5697 5699 5702 5705 5708 5711 5714 5716 5719 5722 5726 5728 5731 5735 5737 5740 5743 5745 5747 5749 5751 5753 5755 5757 5758 5759
5669 5668 5668 5668 5668 5667 5668 5668 5669 5670 5671 5672 5673 5675 5677 5679 5681 5684 5686 5689 5692 5695 5698 5701 5705 5708 5711 5714 5717 5720 5724 5727 5730 5733 5736 5738 5740 5742 5744 5746 5748 5749 5750
5656 5655 5655 5655 5655 5654 5655 5655 5655 5656 5657 5658 5659 5661 5663 5665 5668 5670 5672 5675 5678 5682 5685 5689 5692 5696 5699 5703 5706 5709 5713 5716 5719 5722 5725 5727 5730 5732 5734 5736 5738 5739 5741